User: anonymous
Location: Hiram
(41.3130°N, 81.1440°W)
Time: 09:57:25
(UTC-04:00)
Language:

Iridium 62 - Orbit

View from above orbital plane
View from above orbital plane
View from above satellite
View from above satellite

Ground track
Ground track

The orbit data is extracted from the following two-line orbital elements,

1 25285U 98021A   14112.26566297  .00000494  00000-0  16918-3 0  7470
2 25285 086.3974 345.4181 0002134 105.7308 254.4123 14.34218947839915
Epoch (UTC): 22 April 2014 06:22:33
Eccentricity: 0.0002134
inclination: 86.3974°
perigee height: 776 km
apogee height: 779 km
right ascension of ascending node: 345.4181°
argument of perigee: 105.7308°
revolutions per day: 14.34218947
mean anomaly at epoch: 254.4123°
orbit number at epoch: 83991

The dashed part of the orbit path shows where the satellite is in the earth's shadow,  

DLR